Home > Weather > Fukushima > Past weeks

Flag for Japan Past Weather in Fukushima, Japan — Yesterday and Last 2 Weeks

Now
71 °F

Mild.


Feels Like: 75 °F
Forecast: 61 / 82 °F
Wind: 5 mph from Southeast

Location: Wakamatsu

Current Time: Jul 23, 2016 at 8:19:58 PM

Latest Report: Jul 23, 2016 at 7:00 PM


Visibility: 13 mi

Pressure: 29.96 "Hg

Humidity: 65%

Dew Point: 59 °F

Location of FukushimaLocation

Past Weather in Fukushima — Graph

°F

Fukushima Temperature Yesterday

Maximum temperature yesterday: 80 °F (at 1:00 PM)
Minimum temperature yesterday: 67 °F (at 11:00 PM)
Average temperature yesterday: 73 °F

High & Low Weather Summary for the Past Weeks

 TemperatureHumidityPressure
High87 °F (Jul 12, 3:00 PM)99% (Jul 14, 4:00 AM)29.99 "Hg (Jul 14, 4:00 AM)
Low61 °F (Jul 23, 5:00 AM)44% (Jul 20, 1:00 PM)29.41 "Hg (Jul 14, 12:00 PM)
Average75 °F76%29.74 "Hg
* Reported Jul 8 7:00 PM — Jul 23 7:00 PM, Fukushima, Weather by CustomWeather, © 2016

Note: Actual official high and low records may vary slightly from our data, if they occured in-between our weather recording intervals... More about our weather records

Advertising

Fukushima Weather History for the Previous 24 Hours

Scroll right to see more
 ConditionsComfort  
Time TempWeatherWind HumidityBarometerVisibility
7:00 PM
Sat, Jul 23
71 °FMild.5 mph65%29.96 "Hg12 mi
6:00 PM73 °FMild.12 mph61%29.93 "Hg12 mi
5:00 PM74 °FMild.9 mph58%29.92 "Hg12 mi
4:00 PM78 °FWarm.13 mph53%29.91 "Hg12 mi
3:00 PM79 °FWarm.9 mph51%29.90 "Hg12 mi
2:00 PM81 °FWarm.10 mph47%29.91 "Hg12 mi
1:00 PM80 °FWarm.12 mph49%29.92 "Hg12 mi
12:00 PM80 °FWarm.10 mph47%29.93 "Hg12 mi
11:00 AM78 °FWarm.9 mph51%29.96 "Hg12 mi
10:00 AM75 °FMild.6 mph55%29.97 "Hg12 mi
9:00 AM72 °FMild.5 mph58%29.98 "Hg12 mi
8:00 AM71 °FMild.6 mph59%29.98 "Hg12 mi
7:00 AM67 °FMild.2 mph73%29.99 "Hg12 mi
6:00 AM63 °FMild.3 mph83%29.99 "Hg12 mi
5:00 AM61 °FCool.6 mph88%29.98 "Hg12 mi
4:00 AM62 °FCool.3 mph84%29.97 "Hg12 mi
3:00 AM64 °FMild.1 mph75%29.96 "Hg12 mi
2:00 AM64 °FMild.3 mph73%29.96 "Hg12 mi
1:00 AM65 °FMild.3 mph72%29.97 "Hg12 mi
12:00 AM66 °FMild.5 mph70%29.97 "Hg12 mi
11:00 PM
Fri, Jul 22
67 °FMild.5 mph68%29.98 "Hg12 mi
10:00 PM68 °FMild.3 mph66%29.98 "Hg12 mi
9:00 PM69 °FMild.3 mph66%29.96 "Hg12 mi
8:00 PM71 °FMild.10 mph63%29.94 "Hg12 mi
Weather by CustomWeather, © 2016

See weather overviewHow to use our weather pages